[[{"header":{"parameterUnit":"m.s-1","parameterCategory":1,"la1":30.2991,"la2":30.254,"lo1":-89.0895,"lo2":-89.0444,"dy":0.0017,"dx":0.0017,"nx":28,"ny":28,"refTime":"2025-02-13T09:00:00:Z","depth":0,"parameterNumber":2,"parameterNumberName":"U-component_of_WINDS"},"data":[0,0,0,0,0,0,0,0,0,0,0,0,0,0,0,0,0,0,0,0,0,0,0,0,0,0,0,0,0,0,0,0,0,0,0,0,0,0,0,0,0,0,0,0,0,0,0,0,0,0,0,0,0,0,0,0,0,0,-7.7317,-7.7319,0,-7.7467,-7.7469,-7.7471,-7.7361,-7.7356,-7.7351,-7.7347,-7.7501,-7.751,-7.7518,0,0,0,0,0,0,0,0,0,0,0,0,0,-7.6938,-7.6946,-7.7317,-7.7319,-7.7321,-7.7467,-7.7469,-7.7471,-7.7362,-7.7356,-7.735,-7.7345,-7.7498,-7.7509,-7.7519,0,0,0,0,0,0,0,0,0,0,0,0,0,-7.7097,-7.6948,-7.7317,-7.7284,-7.7283,-7.7467,-7.7469,-7.7472,-7.7363,-7.7356,-7.7349,-7.7342,-7.7495,-7.7508,-7.752,-7.7745,0,0,-7.756,-7.7565,0,0,0,0,0,0,0,0,-7.7088,-7.7111,-7.7287,-7.7287,-7.7285,-7.7388,-7.7392,-7.7564,-7.7365,-7.7333,-7.7347,-7.7338,-7.747,-7.7484,-7.7528,-7.7753,-7.7759,-7.7561,-7.7569,-7.7574,-7.7578,0,0,0,0,0,0,0,-7.7077,-7.7104,-7.7377,-7.729,-7.7289,-7.7262,-7.7277,-7.7424,-7.744,-7.7335,-7.7327,-7.7346,-7.7468,-7.7516,-7.7531,-7.7761,-7.7561,-7.7572,-7.758,-7.7585,-7.8178,-7.8185,0,0,0,0,0,0,-7.7069,-7.7096,-7.7372,-7.7381,-7.7167,-7.7275,-7.7291,-7.7362,-7.7438,-7.7442,-7.7352,-7.7341,-7.7497,-7.7516,-7.7536,-7.7802,-7.7574,-7.7586,-7.7594,-7.817,-7.818,-7.8188,0,0,0,0,0,0,-7.7061,-7.7095,-7.7366,-7.7236,-7.7269,-7.7289,-7.737,-7.7369,-7.7417,-7.7451,-7.7454,-7.7399,-7.7492,-7.7518,-7.7694,-7.7806,-7.7592,-7.7604,-7.8161,-7.8173,-7.8184,-7.8339,0,0,0,0,0,0,-7.7051,-7.7093,-7.7178,-7.7239,-7.7276,-7.7521,-7.7377,-7.7377,-7.744,-7.7426,-7.7495,-7.75,-7.7489,-7.7675,-7.7707,-7.782,-7.7614,-7.815,-7.8166,-7.818,-7.8323,-7.8354,-7.8381,0,0,0,0,0,-7.7038,-7.7215,-7.7182,-7.7216,-7.7383,-7.7527,-7.7549,-7.7532,-7.7449,-7.7535,-7.7557,-7.7498,-7.7791,-7.7694,-7.7729,-7.7848,-7.8143,-7.8162,-7.8179,-7.8311,-7.8348,-7.838,0,0,0,0,0,0,-7.7166,-7.7223,-7.7187,-7.7389,-7.7455,-7.7509,-7.7615,-7.7573,-7.7662,-7.7646,-7.7622,-7.7639,-7.7823,-7.7854,-7.7746,-7.807,-7.7954,-7.7979,-7.8042,-7.8078,-7.8106,-7.8093,-7.7625,0,0,0,0,0,-7.7218,-7.733,-7.7374,-7.7549,-7.7584,-7.7595,-7.7657,-7.7639,-7.7706,-7.7732,-7.7767,-7.7835,-7.7942,-7.8012,-7.8113,-7.833,-7.8342,-7.8429,-7.8458,-7.8481,-7.8502,-7.8618,-7.8656,-7.8247,-7.8247,-7.8247,0,0,-7.7326,-7.7371,-7.7443,-7.7576,-7.7624,-7.7741,-7.7618,-7.7747,-7.7834,-7.7752,-7.7919,-7.7949,-7.8022,-7.8219,-7.8308,-7.825,-7.8619,-7.8504,-7.8522,-7.8531,-7.864,-7.8679,-7.8713,-7.826,-7.8257,-7.8255,0,0,-7.7581,-7.7628,-7.7777,-7.7829,-7.7904,-7.7911,-7.7947,-7.8009,-7.8025,-7.8193,-7.8134,-7.8238,-7.8423,-7.8478,-7.853,-7.881,-7.8758,-7.8845,-7.8992,-7.9106,-7.9138,-7.9166,-7.9264,-7.9299,-7.8866,-7.8867,-7.8867,0,-7.7705,-7.7878,-7.786,-7.7993,-7.8053,-7.7987,-7.8138,-7.8189,-7.8294,-7.8337,-7.8272,-7.8503,-7.8548,-7.8757,-7.8825,-7.8871,-7.8911,-7.8833,-7.9135,-7.9163,-7.9189,-7.9282,-7.9319,-7.8876,-7.8875,-7.8874,-7.8873,0,-7.8026,-7.8148,-7.8261,-7.8362,-7.8436,-7.8578,-7.8582,-7.8659,-7.8636,-7.865,-7.8823,-7.8876,-7.8985,-7.9035,-7.9014,-7.9241,-7.9202,-7.9138,-7.9019,-7.9238,-7.9324,-7.936,-7.889,-7.8887,-7.8884,-7.8882,0,0,-7.8361,-7.8454,-7.8495,-7.854,-7.862,-7.8714,-7.8855,-7.8962,-7.9027,-7.9104,-7.9219,-7.938,-7.932,-7.9379,-7.9365,-7.9465,-7.9681,-7.9387,-7.9388,-7.9437,-7.9933,-7.9978,-8.0019,-7.965,-7.9657,-7.9662,-7.9926,0,-7.8617,-7.886,-7.8849,-7.9076,-7.9188,-7.9128,-7.9251,-7.9313,-7.9332,-7.943,-7.9451,-7.9563,-7.9478,-7.9513,-7.961,-7.9634,-7.978,-7.9616,-7.9756,-7.9761,-7.9734,-8.0065,-8.0113,-8.0359,-7.996,-7.9965,-7.997,0,-7.8947,-7.9034,-7.9272,-7.9336,-7.9383,-7.9493,-7.959,-7.9686,-7.9757,-7.9763,-7.9832,-7.9801,-7.9944,-7.9827,-8.0023,-7.9911,-7.9969,-7.9991,-8.0,-8.0008,-7.9875,-8.0079,-8.0437,-8.0472,-8.0023,-8.0019,-8.0015,0,-7.9163,-7.934,-7.9505,-7.9547,-7.9627,-7.9705,-7.9742,-7.9806,-7.9872,-7.9959,-8.0001,-8.0104,-8.0159,-8.024,-8.0239,-8.0154,-8.0437,-8.032,-8.0445,-8.0445,-8.0502,-8.0498,-8.0871,-8.0548,-8.0548,-8.0547,-8.0546,0,-7.9447,-7.9594,-7.9603,-7.9704,-7.9868,-7.9856,-8.0019,-8.0048,-8.0106,-8.0212,-8.017,-8.027,-8.0265,-8.0367,-8.0369,-8.0529,-8.0556,-8.0564,-8.0562,-8.0565,-8.0564,-8.0599,-8.058,-8.0557,-8.0555,-8.0553,-8.0551,0,-7.9713,-7.9725,-7.9901,-7.9963,-7.9982,-8.01,-8.0153,-8.025,-8.0266,-8.0401,-8.0432,-8.0458,-8.0577,-8.0586,-8.0723,-8.0724,-8.0918,-8.0899,-8.0893,-8.0888,-8.1012,-8.0998,-8.1416,-8.1469,-8.1116,-8.112,-8.1123,0,-7.9891,-8.0003,-8.0078,-8.0146,-8.0187,-8.0298,-8.0365,-8.036,-8.0431,-8.0522,-8.0608,-8.0723,-8.0813,-8.1006,-8.1037,-8.1143,-8.1123,-8.1263,-8.1138,-8.1138,-8.1121,-8.1112,-8.1122,-8.1285,-8.1289,-8.1292,-8.1295,0,-8.0205,-8.0206,-8.0304,-8.0406,-8.0487,-8.0566,-8.0641,-8.0699,-8.0703,-8.0786,-8.0907,-8.0978,-8.1119,-8.1233,-8.1337,-8.1375,-8.1336,-8.1335,-8.1368,-8.137,-8.1361,-8.1364,-8.0954,-8.1324,-8.1321,-8.1318,-8.1317,-8.1316,-8.0429,-8.0525,-8.0593,-8.0705,-8.0761,-8.0832,-8.0925,-8.0954,-8.1055,-8.1168,-8.116,-8.1294,-8.1364,-8.1499,-8.1547,-8.1651,-8.1604,-8.1654,-8.1665,-8.1677,-8.1688,-8.1349,-8.1671,-8.167,-8.1669,-8.1669,-8.1668,0,-8.0737,-8.0779,-8.0882,-8.0987,-8.1075,-8.1033,-8.1114,-8.119,-8.1307,-8.1377,-8.1467,-8.1607,-8.1718,-8.176,-8.1869,-8.1945,-8.1929,-8.1973,-8.1965,-8.1974,-8.1726,-8.1683,-8.1984,-8.1984,-8.1984,-8.1983,-8.1983,-8.1983,-8.0907,-8.1067,-8.1077,-8.1266,-8.1307,-8.1437,-8.1486,-8.1552,-8.1607,-8.1764,-8.1856,-8.1884,-8.1942,-8.2055,-8.2156,-8.2165,-8.2206,-8.2257,-8.2258,-8.2024,-8.1992,-8.1961,-8.1921,-8.2267,-8.2267,-8.2497,-8.25,-8.2501]},{"header":{"parameterUnit":"m.s-1","parameterCategory":1,"la1":30.2991,"la2":30.254,"lo1":-89.0895,"lo2":-89.0444,"dy":0.0017,"dx":0.0017,"nx":28,"ny":28,"refTime":"2025-02-13T09:00:00:Z","depth":0,"parameterNumber":3,"parameterNumberName":"V-component_of_WINDS"},"data":[0,0,0,0,0,0,0,0,0,0,0,0,0,0,0,0,0,0,0,0,0,0,0,0,0,0,0,0,0,0,0,0,0,0,0,0,0,0,0,0,0,0,0,0,0,0,0,0,0,0,0,0,0,0,0,0,0,0,1.5366,1.5367,0,1.5462,1.5463,1.5464,1.5465,1.5463,1.5462,1.5461,1.5559,1.5563,1.5566,0,0,0,0,0,0,0,0,0,0,0,0,0,1.5188,1.5191,1.5366,1.5367,1.5369,1.5461,1.5463,1.5464,1.5465,1.5463,1.5462,1.546,1.5558,1.5562,1.5567,0,0,0,0,0,0,0,0,0,0,0,0,0,1.5272,1.5192,1.5366,1.538,1.5382,1.5461,1.5463,1.5464,1.5465,1.5463,1.5461,1.546,1.5556,1.5562,1.5567,1.5638,0,0,1.5584,1.5587,0,0,0,0,0,0,0,0,1.5267,1.5279,1.5377,1.5379,1.5382,1.5449,1.5436,1.5523,1.5466,1.5434,1.5461,1.5459,1.5524,1.5532,1.5554,1.5643,1.5647,1.5585,1.5588,1.5591,1.5592,0,0,0,0,0,0,0,1.5262,1.5275,1.5404,1.5378,1.5382,1.5383,1.5393,1.5452,1.5488,1.5436,1.5437,1.5448,1.5525,1.5549,1.5556,1.5649,1.5585,1.559,1.5593,1.5595,1.5804,1.5806,0,0,0,0,0,0,1.5253,1.527,1.5401,1.5407,1.5319,1.5387,1.5399,1.543,1.5487,1.5494,1.5449,1.5448,1.554,1.555,1.556,1.5649,1.5591,1.5596,1.5599,1.5802,1.5804,1.5807,0,0,0,0,0,0,1.5249,1.5264,1.5397,1.5339,1.5356,1.5392,1.5427,1.5432,1.5456,1.5497,1.5504,1.5467,1.5539,1.5552,1.5619,1.5652,1.5598,1.5603,1.5799,1.5802,1.5805,1.5826,0,0,0,0,0,0,1.5244,1.5263,1.5289,1.5339,1.5359,1.5454,1.5429,1.5436,1.5466,1.5464,1.5515,1.5522,1.5538,1.5611,1.5625,1.5659,1.5608,1.5796,1.58,1.5804,1.5822,1.5829,1.5835,0,0,0,0,0,1.5237,1.5291,1.5291,1.5307,1.5393,1.5456,1.5468,1.5485,1.5468,1.5496,1.5523,1.552,1.5646,1.5618,1.5634,1.5669,1.5794,1.5799,1.5804,1.5819,1.5828,1.5835,0,0,0,0,0,0,1.5243,1.5297,1.5298,1.5369,1.5408,1.5456,1.5491,1.5493,1.5538,1.5535,1.5556,1.5567,1.5635,1.5659,1.5627,1.5743,1.5718,1.5727,1.5724,1.5733,1.5739,1.5732,1.5613,0,0,0,0,0,1.5253,1.53,1.5345,1.5403,1.5423,1.5454,1.5482,1.5493,1.5534,1.5551,1.5583,1.5623,1.5672,1.5704,1.5751,1.5826,1.5838,1.5859,1.5865,1.587,1.5877,1.5921,1.5931,1.5823,1.5823,1.5822,0,0,1.5273,1.5309,1.5337,1.5405,1.5437,1.5486,1.5468,1.552,1.5557,1.5559,1.5625,1.565,1.5697,1.5769,1.5802,1.5791,1.591,1.5876,1.588,1.5884,1.5927,1.5937,1.5946,1.5826,1.5825,1.5825,0,0,1.5335,1.5366,1.542,1.5452,1.5501,1.5521,1.5534,1.5583,1.56,1.5667,1.567,1.5715,1.5798,1.5832,1.586,1.5939,1.5939,1.5954,1.5987,1.603,1.6038,1.6046,1.6075,1.6086,1.5961,1.5961,1.5961,0,1.5354,1.5428,1.5447,1.55,1.5531,1.5536,1.5591,1.5622,1.5683,1.5705,1.5691,1.5798,1.583,1.5911,1.5931,1.5953,1.5969,1.5948,1.6036,1.6043,1.6051,1.6079,1.609,1.5962,1.5962,1.5962,1.5962,0,1.545,1.5501,1.5538,1.5599,1.5634,1.5687,1.5715,1.5749,1.5758,1.578,1.585,1.5888,1.5945,1.5965,1.5973,1.6048,1.604,1.6031,1.6007,1.6063,1.609,1.61,1.5964,1.5964,1.5963,1.5963,0,0,1.5517,1.5588,1.5602,1.563,1.5686,1.5726,1.5781,1.5836,1.5866,1.5909,1.5956,1.6028,1.6021,1.6053,1.6066,1.6103,1.6165,1.6089,1.6091,1.6103,1.6252,1.6259,1.6271,1.6165,1.6168,1.6169,1.6249,0,1.5585,1.5683,1.5703,1.5788,1.5836,1.5844,1.5892,1.5932,1.5955,1.6001,1.6026,1.6078,1.6063,1.6083,1.612,1.6149,1.6195,1.6144,1.6211,1.6213,1.6199,1.6285,1.6292,1.6365,1.6259,1.6261,1.6262,0,1.5678,1.5725,1.5814,1.5866,1.5887,1.593,1.5984,1.6027,1.6073,1.6088,1.6125,1.6134,1.6193,1.6167,1.6249,1.6214,1.6243,1.6261,1.6265,1.6272,1.6241,1.6295,1.6388,1.6399,1.6279,1.6277,1.6276,0,1.5719,1.5804,1.587,1.5894,1.5955,1.5985,1.6012,1.6057,1.609,1.6137,1.6159,1.6213,1.6242,1.6284,1.6308,1.6286,1.6389,1.6364,1.6404,1.6403,1.6425,1.6423,1.6525,1.6443,1.6443,1.6442,1.6442,0,1.5794,1.5849,1.5889,1.593,1.5992,1.6016,1.6077,1.6104,1.6144,1.6191,1.62,1.6244,1.6273,1.6321,1.634,1.6407,1.6419,1.6434,1.6438,1.6433,1.6432,1.6452,1.6448,1.6445,1.6445,1.6444,1.6444,0,1.5851,1.5879,1.5952,1.6004,1.6019,1.6063,1.6109,1.6149,1.6173,1.6232,1.6248,1.6286,1.6344,1.6372,1.6443,1.6456,1.6532,1.6532,1.6516,1.6518,1.6556,1.6553,1.6675,1.6693,1.6599,1.6599,1.66,0,1.5897,1.5939,1.5998,1.603,1.6058,1.6109,1.6143,1.6169,1.6204,1.6262,1.6295,1.6353,1.6401,1.6493,1.6528,1.6583,1.6586,1.6625,1.6594,1.6588,1.6587,1.6585,1.659,1.663,1.6631,1.6632,1.6632,0,1.5976,1.5989,1.6038,1.6093,1.6134,1.6178,1.6221,1.6247,1.628,1.632,1.6379,1.6416,1.649,1.6548,1.6606,1.6635,1.664,1.6642,1.6654,1.665,1.6639,1.6646,1.6532,1.6639,1.6638,1.6638,1.6637,1.6637,1.6029,1.6068,1.6116,1.6171,1.6207,1.6248,1.6289,1.632,1.637,1.6432,1.6444,1.6508,1.6555,1.6634,1.6665,1.6715,1.6707,1.6724,1.6729,1.6733,1.6736,1.6631,1.6726,1.6726,1.6726,1.6726,1.6725,0,1.611,1.6141,1.6192,1.6254,1.6297,1.6299,1.6348,1.6385,1.644,1.6485,1.6532,1.6601,1.6659,1.6699,1.6757,1.679,1.6794,1.6805,1.6803,1.681,1.6739,1.6723,1.6801,1.6801,1.6801,1.6801,1.6801,1.6801,1.6157,1.6224,1.6243,1.6329,1.6361,1.6423,1.6451,1.649,1.6526,1.6603,1.6651,1.6677,1.672,1.6782,1.6835,1.6846,1.6867,1.6878,1.6889,1.6822,1.6814,1.6807,1.6792,1.6882,1.6882,1.6955,1.6955,1.6956]}]]